Temp
43 43 43 43 43 43 43 43 42 42 43 44 44 43 43 43 43 44 44 44 42 42 43 42 42 43 43 42 42 42 41 41 41 40 39 39 40 40 39 39 39 39 39 39 38 38 38 38 38 37 38 38 38 38 39 38 37 37 37 38 37 36
44 44 43 42 42 42 42 41 42 42 43 43 44 43 43 43 42 43 43 43 42 42 42 42 43 42 42 42 41 41 41 40 40 40 39 39 40 40 40 40 39 39 39 39 39 38 38 38 38 37 37 38 38 38 38 37 36 36 36 37 37 36
44 43 43 43 42 42 42 41 41 42 42 43 43 42 42 42 42 43 43 43 42 42 41 41 41 41 41 41 41 41 40 40 40 40 40 41 39 40 39 39 38 38 38 37 37 37 36 36 36 36 36 37 36 36 36 35 35 34 35 36 35 36
44 42 42 42 42 41 41 41 42 41 42 43 43 42 42 42 42 42 42 42 42 42 42 41 41 41 41 40 41 40 40 40 40 40 40 39 38 38 37 37 36 36 36 36 35 35 35 35 35 35 35 35 34 34 34 33 34 33 34 34 34 35
43 42 42 41 41 41 41 41 41 41 42 42 42 42 42 43 42 43 42 42 42 42 42 41 41 41 41 41 41 41 40 40 39 40 39 38 37 37 37 36 36 35 35 35 35 34 34 34 34 34 33 33 33 33 33 33 33 32 32 32 33 33
43 42 41 41 41 41 41 41 42 42 42 42 42 42 42 43 42 42 42 42 42 42 41 41 41 41 42 41 41 39 39 39 38 38 37 36 36 35 35 35 34 34 34 33 33 33 33 33 33 32 33 32 32 32 32 32 32 32 32 31 32 32
42 41 42 42 42 42 42 41 42 42 42 42 42 43 43 43 43 42 42 42 42 41 41 41 42 41 41 40 40 38 38 37 37 36 35 35 35 34 34 34 34 32 33 32 32 32 32 32 31 31 31 32 32 31 31 31 31 31 31 31 31 30
42 42 42 42 42 42 42 42 42 42 43 43 43 43 43 43 43 42 42 42 41 41 41 41 41 41 40 39 38 37 37 36 35 35 34 34 33 33 32 32 32 32 31 31 31 31 30 31 30 30 30 30 30 30 30 30 30 30 30 30 30 30
42 42 42 42 42 43 42 42 42 42 43 42 42 43 43 43 42 42 42 42 41 41 41 41 40 39 38 37 37 36 35 34 33 33 32 32 31 31 31 30 30 30 29 29 29 29 29 28 29 29 29 29 29 29 29 29 29 29 30 30 29 30
43 42 42 42 42 43 42 42 43 42 43 42 42 43 43 42 42 42 41 41 41 41 40 39 38 38 37 36 35 35 34 33 32 31 30 30 29 29 29 28 28 29 28 28 27 27 27 27 28 28 28 28 28 29 28 28 28 28 28 28 29 29
43 42 42 42 42 42 42 42 43 43 43 44 43 43 43 43 42 42 41 41 41 41 39 37 37 35 34 34 33 32 31 30 30 29 28 28 28 27 27 26 26 26 26 26 25 25 26 26 26 27 26 26 27 27 27 27 26 26 26 26 27 28
43 43 42 42 42 42 42 42 42 43 42 42 43 43 43 43 42 41 41 41 41 39 37 36 35 34 33 33 32 31 30 29 28 27 26 25 25 25 25 24 24 24 24 24 24 24 24 24 25 22 21 23 25 25 26 25 25 25 25 25 25 26
43 43 42 42 42 42 42 42 43 43 43 43 43 43 43 42 41 41 41 40 40 37 36 35 34 33 32 32 31 27 27 27 25 24 22 22 22 21 21 22 23 23 23 22 22 22 23 23 23 20 22 23 24 24 24 24 24 25 24 25 25 24
43 43 42 42 42 43 43 42 42 42 42 43 43 43 43 41 41 41 41 41 38 36 35 34 33 32 31 28 25 24 23 22 21 21 20 20 19 20 20 20 21 21 22 21 21 21 21 22 21 20 21 22 23 24 24 23 22 23 24 24 24 25
43 43 43 43 43 42 43 43 42 42 43 42 43 43 40 40 40 40 39 38 36 36 35 34 32 29 26 26 24 22 20 19 19 18 17 17 19 18 18 20 19 19 20 19 19 19 20 21 20 19 20 21 22 23 23 23 23 22 22 23 24 23
43 43 43 43 43 43 44 44 43 44 44 44 43 41 40 39 39 39 38 36 35 35 35 32 29 27 25 23 21 20 19 18 19 19 19 18 17 17 17 17 16 17 17 18 17 18 19 19 18 19 20 21 21 22 23 22 22 22 22 22 22 22
42 42 42 43 43 44 44 43 44 44 43 43 41 41 38 38 38 38 38 35 35 34 30 30 28 26 23 20 19 19 18 18 18 16 17 17 17 16 15 16 15 14 13 13 14 15 15 17 17 18 19 20 21 22 22 22 21 21 20 21 21 21
41 41 41 42 42 43 43 43 44 42 41 41 40 38 38 36 36 36 36 34 33 31 31 28 26 24 21 20 18 18 18 17 16 15 17 15 16 16 15 15 14 12 11 12 11 12 12 16 17 17 18 19 20 21 21 20 19 19 19 19 21 21
41 42 41 41 42 41 41 42 41 41 38 37 37 36 35 35 34 35 34 32 32 29 29 28 25 23 20 19 17 16 17 16 15 15 15 13 15 15 14 13 12 12 11 10 10 9 11 13 15 16 17 18 20 20 19 19 18 18 18 19 20 21
40 40 41 40 40 41 41 41 39 39 35 34 34 33 33 32 33 34 32 32 30 30 28 27 24 21 19 17 16 16 17 17 17 14 14 13 13 13 13 12 11 10 10 9 9 9 8 9 13 15 17 17 19 19 18 18 18 17 17 18 20 21
39 38 39 39 38 39 39 37 36 35 34 33 32 32 30 31 33 33 31 32 31 29 26 24 22 20 18 16 16 15 15 14 14 14 12 12 12 12 11 10 10 9 9 8 7 8 9 9 11 14 15 17 18 19 18 18 17 16 17 18 18 21
36 36 37 38 39 37 35 34 34 32 33 32 31 30 29 32 33 35 34 32 29 26 23 21 19 18 16 15 15 13 14 14 12 10 10 10 12 12 12 10 10 7 8 8 7 7 8 9 10 11 14 16 18 19 19 19 17 16 17 18 18 18
38 38 38 39 38 33 33 32 32 31 32 31 29 28 31 34 35 33 31 29 24 22 19 19 17 15 14 15 13 13 11 12 12 11 9 8 10 10 9 6 6 5 5 7 7 7 7 8 8 9 14 16 18 19 19 18 18 18 18 18 19 19
37 37 37 37 34 31 30 31 30 31 32 29 28 30 34 34 33 30 27 22 21 19 16 15 15 14 12 11 11 10 9 10 10 9 7 10 10 5 5 5 6 8 8 9 8 8 7 9 10 10 13 16 18 19 20 20 20 21 20 19 20 20
36 36 38 35 31 30 29 29 29 29 28 27 30 33 34 31 28 26 23 20 17 15 13 12 10 9 8 7 8 8 9 8 5 5 5 5 5 4 4 5 6 7 8 9 11 11 10 10 11 13 14 16 18 20 21 22 22 23 22 20 19 20
37 37 37 33 29 27 27 28 28 28 26 28 34 32 27 24 23 21 19 16 15 13 11 9 8 7 7 6 7 6 7 7 6 5 6 6 7 9 8 11 10 9 8 8 11 11 12 12 13 14 16 17 19 20 21 22 23 24 22 22 21 22
37 36 35 33 27 27 25 27 28 26 25 30 30 25 22 20 18 17 16 14 13 11 9 7 7 6 6 5 6 6 7 5 3 6 7 5 7 9 10 12 10 9 10 9 9 11 13 14 15 16 18 19 19 20 21 22 23 23 24 22 23 24
32 32 32 32 28 26 24 25 27 26 28 32 27 23 19 17 15 15 15 14 11 10 8 6 5 5 4 4 6 7 10 9 6 9 11 9 10 9 9 10 10 9 8 8 10 11 12 13 14 15 16 18 19 20 21 22 23 23 24 24 23 23
28 28 29 30 28 24 24 23 24 28 31 27 24 20 18 15 15 15 15 12 12 9 6 6 8 6 3 2 5 7 8 9 9 9 9 10 10 9 9 9 7 8 9 9 10 11 12 13 14 15 16 17 19 20 20 20 21 23 23 23 21 20
28 29 29 29 32 26 23 22 22 24 25 22 21 17 15 14 15 16 15 12 11 10 6 8 6 6 7 4 4 6 7 7 7 8 9 10 11 10 10 9 9 9 10 10 11 12 12 12 14 15 16 18 18 19 20 21 21 21 21 19 19 17
27 28 29 30 32 28 23 22 22 22 22 19 16 15 14 15 14 16 16 13 11 10 8 9 9 8 10 7 4 7 9 8 7 7 8 8 9 11 11 10 11 10 10 10 10 10 10 12 13 16 19 20 21 21 20 20 21 21 20 19 20 14
28 28 28 30 31 28 24 22 21 20 20 17 14 14 15 15 15 14 14 12 11 10 8 8 8 7 9 8 7 4 3 5 9 9 8 8 9 11 13 12 10 11 12 11 11 12 11 12 15 19 21 22 22 22 22 23 24 23 21 20 19 14
26 26 26 27 28 27 24 23 21 19 17 16 13 13 15 15 16 16 15 11 11 10 8 7 8 6 7 7 7 7 7 7 8 12 13 13 12 13 14 16 17 17 17 13 11 14 18 19 20 21 21 21 21 21 22 23 23 22 19 19 15 11
24 24 25 27 26 24 24 22 21 19 16 14 12 12 14 14 16 16 16 13 11 8 7 8 7 6 5 7 6 6 7 8 9 10 12 14 15 16 16 17 18 18 19 20 19 18 17 19 20 20 20 20 20 21 22 22 21 18 18 17 14 9
26 26 25 26 25 23 22 21 20 17 13 12 11 10 11 12 13 15 15 13 9 8 6 6 7 6 6 4 4 4 5 7 8 11 13 12 13 14 15 15 16 17 18 19 19 20 19 19 19 19 19 19 20 21 21 20 17 16 16 13 10 7
27 26 25 23 22 21 20 19 18 14 12 9 9 9 10 10 11 13 14 11 8 8 8 7 7 7 7 7 6 6 5 6 7 8 9 10 10 9 10 12 14 14 14 15 16 16 17 17 17 18 18 18 19 20 19 16 13 14 12 10 7 6
23 23 21 19 19 17 16 16 13 9 7 6 7 7 8 8 8 10 7 4 5 9 8 8 8 7 7 6 5 4 3 4 4 4 3 4 6 8 9 9 10 10 10 10 11 12 14 15 16 17 17 17 19 18 15 14 11 9 8 7 5 5
19 19 17 15 15 14 13 11 4 4 4 4 5 5 5 6 7 8 8 5 4 6 7 7 6 7 6 5 4 4 3 4 3 3 3 3 2 2 2 3 5 5 6 8 10 12 13 14 15 15 15 16 17 14 13 8 8 7 6 5 5 5
MSLP
1026.37 1026.79 1027.21 1027.49 1027.67 1027.75 1027.81 1028.01 1028.21 1028.21 1028.17 1028.13 1028.03 1028.07 1028.17 1028.27 1028.45 1028.69 1029.01 1029.25 1029.55 1029.83 1030.05 1030.29 1030.51 1030.67 1030.85 1031.07 1031.21 1031.37 1031.49 1031.55 1031.61 1031.73 1031.89 1031.97 1031.97 1031.99 1032.03 1032.05 1032.09 1032.11 1032.19 1032.17 1032.17 1032.15 1032.11 1032.03 1031.97 1031.91 1031.75 1031.63 1031.43 1031.33 1031.17 1031.23 1031.29 1031.07 1030.89 1030.71 1030.75 1030.73
1025.91 1026.39 1026.83 1027.35 1027.61 1027.81 1027.97 1028.21 1028.37 1028.35 1028.33 1028.33 1028.29 1028.37 1028.43 1028.53 1028.69 1028.87 1029.09 1029.41 1029.65 1029.93 1030.21 1030.47 1030.65 1030.83 1031.01 1031.15 1031.27 1031.37 1031.49 1031.53 1031.59 1031.69 1031.79 1031.91 1031.91 1031.99 1032.03 1032.07 1032.15 1032.19 1032.19 1032.19 1032.19 1032.17 1032.11 1032.05 1032.01 1031.97 1031.91 1031.71 1031.57 1031.49 1031.37 1031.37 1031.43 1031.29 1031.03 1030.83 1030.77 1030.77
1025.73 1026.29 1026.75 1027.19 1027.51 1027.73 1027.97 1028.23 1028.33 1028.41 1028.51 1028.39 1028.35 1028.33 1028.49 1028.59 1028.75 1028.87 1029.15 1029.45 1029.79 1030.01 1030.25 1030.57 1030.79 1030.99 1031.07 1031.19 1031.29 1031.37 1031.47 1031.49 1031.51 1031.59 1031.71 1031.83 1031.97 1032.09 1032.13 1032.23 1032.31 1032.33 1032.37 1032.39 1032.37 1032.35 1032.31 1032.27 1032.21 1032.13 1032.03 1031.87 1031.81 1031.73 1031.73 1031.67 1031.55 1031.43 1031.17 1030.99 1030.85 1030.69
1025.55 1026.29 1026.77 1027.13 1027.39 1027.69 1028.01 1028.17 1028.25 1028.47 1028.49 1028.41 1028.39 1028.39 1028.37 1028.47 1028.75 1028.93 1029.25 1029.55 1029.79 1030.01 1030.33 1030.65 1030.85 1030.97 1031.05 1031.15 1031.23 1031.27 1031.31 1031.37 1031.51 1031.69 1031.79 1031.99 1032.25 1032.31 1032.39 1032.43 1032.51 1032.55 1032.57 1032.55 1032.55 1032.55 1032.47 1032.45 1032.41 1032.31 1032.21 1032.07 1031.99 1031.87 1031.81 1031.77 1031.63 1031.49 1031.31 1031.05 1030.91 1030.67
1025.19 1025.85 1026.35 1026.77 1027.07 1027.39 1027.73 1028.03 1028.17 1028.27 1028.23 1028.21 1028.19 1028.15 1028.25 1028.37 1028.63 1028.95 1029.25 1029.49 1029.73 1030.03 1030.41 1030.69 1030.83 1030.85 1030.89 1030.91 1030.95 1031.07 1031.23 1031.49 1031.71 1031.85 1031.95 1032.11 1032.31 1032.45 1032.49 1032.59 1032.61 1032.69 1032.67 1032.65 1032.61 1032.61 1032.59 1032.55 1032.49 1032.39 1032.35 1032.25 1032.13 1032.01 1031.85 1031.75 1031.69 1031.57 1031.37 1031.17 1030.93 1030.79
1025.03 1025.59 1026.01 1026.23 1026.51 1026.93 1027.33 1027.79 1027.99 1028.05 1028.01 1027.99 1027.97 1027.97 1028.13 1028.43 1028.71 1028.99 1029.21 1029.41 1029.69 1030.05 1030.41 1030.59 1030.67 1030.73 1030.69 1030.73 1030.89 1031.15 1031.33 1031.57 1031.81 1032.01 1032.17 1032.33 1032.41 1032.51 1032.61 1032.71 1032.77 1032.75 1032.75 1032.73 1032.71 1032.69 1032.67 1032.63 1032.55 1032.51 1032.37 1032.33 1032.21 1032.11 1031.95 1031.79 1031.69 1031.53 1031.35 1031.19 1030.99 1030.85
1024.75 1024.97 1025.27 1025.65 1026.05 1026.57 1027.01 1027.41 1027.61 1027.65 1027.69 1027.73 1027.81 1027.85 1028.05 1028.33 1028.63 1028.91 1029.07 1029.27 1029.63 1030.05 1030.27 1030.39 1030.49 1030.53 1030.59 1030.73 1030.93 1031.23 1031.49 1031.73 1031.97 1032.19 1032.37 1032.43 1032.49 1032.59 1032.63 1032.69 1032.81 1032.89 1032.77 1032.87 1032.83 1032.81 1032.75 1032.71 1032.67 1032.57 1032.47 1032.33 1032.23 1032.15 1032.01 1031.85 1031.67 1031.47 1031.31 1031.17 1031.05 1031.01
1024.17 1024.61 1024.83 1025.19 1025.63 1026.13 1026.57 1026.99 1027.21 1027.29 1027.35 1027.41 1027.55 1027.69 1027.97 1028.25 1028.53 1028.75 1028.93 1029.19 1029.57 1029.87 1030.05 1030.17 1030.23 1030.39 1030.55 1030.71 1030.97 1031.37 1031.69 1031.95 1032.15 1032.29 1032.43 1032.53 1032.57 1032.65 1032.73 1032.85 1032.85 1032.93 1032.97 1032.93 1032.99 1032.97 1032.93 1032.85 1032.79 1032.69 1032.55 1032.41 1032.27 1032.15 1031.99 1031.81 1031.63 1031.45 1031.31 1031.17 1031.05 1030.93
1023.81 1023.83 1024.33 1024.81 1025.31 1025.77 1026.21 1026.55 1026.81 1026.91 1026.97 1027.17 1027.41 1027.53 1027.71 1028.01 1028.35 1028.59 1028.81 1029.09 1029.35 1029.59 1029.73 1029.89 1030.07 1030.33 1030.53 1030.71 1031.07 1031.51 1031.83 1032.09 1032.27 1032.35 1032.47 1032.57 1032.69 1032.77 1032.81 1032.93 1033.05 1033.05 1033.13 1033.13 1033.15 1033.15 1033.07 1033.01 1032.85 1032.69 1032.53 1032.41 1032.31 1032.13 1031.95 1031.75 1031.57 1031.41 1031.23 1031.11 1030.99 1030.87
1022.95 1023.49 1023.87 1024.45 1024.95 1025.43 1025.89 1026.15 1026.29 1026.41 1026.51 1026.71 1027.07 1027.29 1027.51 1027.81 1028.11 1028.35 1028.61 1028.85 1029.09 1029.29 1029.59 1029.85 1030.09 1030.27 1030.47 1030.87 1031.31 1031.63 1031.93 1032.17 1032.29 1032.43 1032.57 1032.71 1032.79 1032.89 1033.03 1033.11 1033.15 1033.17 1033.25 1033.29 1033.31 1033.27 1033.19 1033.05 1032.85 1032.67 1032.55 1032.43 1032.25 1031.99 1031.83 1031.71 1031.61 1031.45 1031.29 1031.11 1030.93 1030.79
1022.31 1022.93 1023.63 1024.11 1024.65 1025.11 1025.49 1025.77 1025.93 1026.11 1026.27 1026.39 1026.67 1026.93 1027.11 1027.43 1027.79 1028.07 1028.31 1028.57 1028.77 1028.99 1029.45 1029.91 1030.17 1030.39 1030.75 1031.11 1031.43 1031.75 1031.99 1032.17 1032.33 1032.49 1032.63 1032.81 1032.95 1033.09 1033.21 1033.31 1033.31 1033.35 1033.33 1033.39 1033.39 1033.37 1033.23 1033.09 1032.89 1032.73 1032.71 1032.57 1032.25 1032.05 1031.89 1031.75 1031.65 1031.57 1031.39 1031.13 1030.91 1030.71
1022.15 1022.71 1023.27 1023.87 1024.27 1024.67 1024.95 1025.19 1025.37 1025.51 1025.75 1025.99 1026.27 1026.57 1026.77 1027.13 1027.47 1027.71 1027.99 1028.27 1028.47 1028.93 1029.49 1029.81 1030.09 1030.43 1030.81 1031.11 1031.39 1031.67 1031.95 1032.15 1032.35 1032.55 1032.73 1032.95 1033.09 1033.25 1033.37 1033.45 1033.43 1033.43 1033.41 1033.41 1033.37 1033.35 1033.25 1033.05 1032.87 1032.97 1033.03 1032.73 1032.43 1032.17 1031.97 1031.83 1031.71 1031.57 1031.35 1031.15 1030.93 1030.65
1021.95 1022.55 1023.05 1023.39 1023.73 1023.93 1024.19 1024.37 1024.63 1024.99 1025.31 1025.53 1025.77 1026.05 1026.35 1026.71 1027.09 1027.35 1027.63 1027.95 1028.31 1028.93 1029.35 1029.63 1029.99 1030.39 1030.75 1030.99 1031.39 1031.79 1032.03 1032.19 1032.37 1032.59 1032.89 1033.11 1033.29 1033.43 1033.57 1033.53 1033.47 1033.41 1033.39 1033.45 1033.43 1033.37 1033.15 1032.99 1032.85 1032.97 1032.75 1032.51 1032.33 1032.17 1031.95 1031.79 1031.61 1031.47 1031.31 1031.09 1030.85 1030.63
1021.59 1021.97 1022.39 1022.71 1022.99 1023.27 1023.51 1023.81 1024.13 1024.59 1024.79 1024.93 1025.23 1025.47 1025.95 1026.47 1026.77 1027.07 1027.37 1027.65 1028.27 1028.89 1029.21 1029.39 1029.83 1030.25 1030.61 1031.09 1031.59 1031.97 1032.11 1032.31 1032.53 1032.71 1032.93 1033.13 1033.31 1033.39 1033.51 1033.53 1033.43 1033.47 1033.43 1033.45 1033.43 1033.31 1033.11 1032.89 1032.81 1032.79 1032.61 1032.37 1032.19 1032.03 1031.85 1031.69 1031.51 1031.31 1031.15 1030.99 1030.79 1030.47
1021.03 1021.31 1021.67 1022.05 1022.37 1022.67 1022.77 1023.05 1023.59 1023.83 1023.97 1024.39 1024.67 1025.21 1025.85 1026.33 1026.57 1026.85 1027.21 1027.59 1028.15 1028.55 1028.83 1029.13 1029.69 1030.19 1030.75 1031.11 1031.61 1032.01 1032.33 1032.45 1032.55 1032.75 1032.95 1033.11 1033.15 1033.43 1033.55 1033.39 1033.45 1033.45 1033.41 1033.43 1033.39 1033.29 1033.05 1032.81 1032.69 1032.67 1032.47 1032.23 1032.03 1031.83 1031.69 1031.47 1031.25 1031.11 1030.97 1030.81 1030.67 1030.53
1020.91 1021.05 1021.15 1021.39 1021.65 1021.95 1022.27 1022.69 1022.91 1023.13 1023.59 1024.07 1024.53 1025.05 1025.71 1026.17 1026.49 1026.67 1026.99 1027.45 1027.95 1028.19 1028.49 1029.03 1029.59 1030.11 1030.65 1031.27 1031.73 1031.95 1032.11 1032.27 1032.23 1032.41 1032.63 1032.97 1033.29 1033.37 1033.37 1033.41 1033.57 1033.45 1033.43 1033.39 1033.37 1033.25 1033.01 1032.75 1032.63 1032.57 1032.35 1032.09 1031.89 1031.69 1031.47 1031.21 1031.05 1030.93 1030.87 1030.89 1030.77 1030.59
1020.65 1020.87 1021.17 1021.33 1021.53 1021.85 1022.23 1022.53 1022.75 1023.17 1023.63 1023.93 1024.43 1024.97 1025.53 1025.93 1026.17 1026.43 1026.65 1027.19 1027.63 1028.01 1028.47 1028.99 1029.53 1029.93 1030.65 1031.35 1031.69 1031.79 1031.83 1031.93 1032.09 1032.49 1032.67 1032.89 1033.05 1033.17 1033.27 1033.23 1033.35 1033.39 1033.53 1033.51 1033.43 1033.27 1033.09 1032.71 1032.61 1032.45 1032.19 1031.97 1031.75 1031.47 1031.19 1031.01 1030.93 1030.87 1030.87 1030.77 1030.65 1030.51
1020.33 1020.59 1020.73 1020.99 1021.45 1021.71 1021.91 1022.21 1022.55 1023.05 1023.45 1023.87 1024.37 1024.89 1025.29 1025.63 1025.93 1026.17 1026.49 1026.99 1027.43 1027.87 1028.33 1028.81 1029.23 1029.83 1030.55 1031.11 1031.39 1031.49 1031.55 1031.81 1032.03 1032.31 1032.47 1032.83 1032.95 1033.07 1033.13 1033.17 1033.19 1033.37 1033.45 1033.41 1033.45 1033.35 1033.03 1032.51 1032.39 1032.29 1032.09 1031.83 1031.53 1031.23 1031.03 1030.91 1030.83 1030.75 1030.61 1030.51 1030.41 1030.25
1020.17 1020.37 1020.75 1021.09 1021.29 1021.61 1021.89 1022.17 1022.63 1023.03 1023.59 1024.19 1024.45 1024.87 1025.25 1025.57 1025.81 1025.95 1026.27 1026.71 1027.09 1027.63 1028.07 1028.49 1028.89 1029.49 1030.17 1030.67 1030.93 1031.05 1031.15 1031.45 1031.85 1032.19 1032.41 1032.83 1032.77 1032.75 1032.79 1032.93 1033.03 1033.03 1033.17 1033.29 1033.35 1033.23 1032.89 1032.47 1032.25 1032.15 1031.87 1031.57 1031.33 1031.07 1030.93 1030.75 1030.59 1030.47 1030.35 1030.23 1030.11 1029.93
1020.43 1020.65 1020.75 1021.07 1021.35 1021.55 1021.83 1022.17 1022.67 1023.03 1023.67 1024.19 1024.57 1025.01 1025.31 1025.53 1025.55 1025.61 1025.99 1026.31 1026.65 1027.23 1027.69 1028.09 1028.47 1029.01 1029.71 1030.19 1030.07 1030.31 1030.83 1031.17 1031.45 1031.91 1032.25 1032.43 1032.49 1032.47 1032.59 1032.69 1032.81 1032.99 1033.01 1033.11 1033.07 1032.93 1032.91 1032.51 1032.09 1031.87 1031.59 1031.35 1031.11 1030.87 1030.69 1030.49 1030.33 1030.21 1030.07 1029.93 1029.75 1029.57
1020.49 1020.79 1021.01 1021.19 1021.45 1021.61 1021.93 1022.37 1022.73 1023.17 1023.55 1023.99 1024.55 1024.89 1025.09 1025.17 1025.05 1025.19 1025.51 1025.77 1026.21 1026.91 1027.43 1027.89 1028.37 1028.77 1029.21 1029.45 1029.81 1030.23 1030.49 1030.95 1031.29 1031.65 1032.13 1032.35 1032.33 1032.41 1032.51 1032.63 1032.65 1032.75 1032.79 1032.83 1032.89 1032.77 1032.59 1032.23 1031.91 1031.69 1031.43 1031.15 1030.89 1030.63 1030.45 1030.23 1030.07 1029.97 1029.75 1029.61 1029.39 1029.17
1020.93 1021.13 1021.23 1021.03 1021.03 1021.59 1022.17 1022.55 1022.85 1023.01 1023.25 1023.77 1024.39 1024.67 1024.53 1024.33 1024.23 1024.37 1024.91 1025.45 1026.17 1026.87 1027.43 1027.89 1028.23 1028.53 1028.71 1028.97 1029.73 1030.33 1030.57 1030.93 1031.43 1031.81 1032.01 1032.21 1032.15 1032.13 1032.17 1032.43 1032.37 1032.67 1032.53 1032.47 1032.57 1032.51 1032.25 1032.07 1031.71 1031.53 1031.19 1030.91 1030.63 1030.35 1030.17 1029.95 1029.81 1029.63 1029.45 1029.29 1029.05 1028.69
1020.29 1019.89 1019.91 1020.41 1020.91 1021.81 1022.29 1022.57 1022.67 1022.99 1023.17 1023.67 1024.21 1023.93 1023.37 1023.37 1023.77 1024.31 1024.95 1025.61 1026.35 1026.99 1027.49 1027.93 1028.09 1028.27 1028.87 1029.21 1029.65 1030.23 1030.73 1030.93 1031.11 1031.53 1031.91 1032.11 1031.99 1032.07 1032.17 1032.45 1032.53 1032.57 1032.51 1032.23 1032.27 1032.13 1032.01 1031.87 1031.67 1031.35 1030.93 1030.61 1030.35 1030.07 1029.87 1029.67 1029.49 1029.27 1029.07 1028.79 1028.47 1028.11
1020.27 1020.35 1020.59 1020.77 1021.25 1021.95 1022.27 1022.39 1022.43 1022.55 1022.95 1023.55 1023.41 1022.51 1022.71 1023.23 1023.77 1024.47 1025.19 1025.75 1026.29 1026.85 1027.39 1027.71 1028.25 1028.65 1028.97 1029.53 1029.89 1030.19 1030.65 1030.93 1031.15 1031.37 1031.77 1031.69 1031.69 1032.21 1032.37 1032.35 1032.17 1031.91 1031.81 1031.73 1031.79 1031.73 1031.65 1031.41 1031.23 1030.99 1030.69 1030.37 1030.07 1029.79 1029.49 1029.27 1028.99 1028.77 1028.55 1028.21 1027.95 1027.77
1020.15 1020.19 1020.13 1020.95 1021.73 1022.21 1022.31 1022.21 1022.07 1022.39 1022.81 1022.99 1021.87 1022.23 1022.83 1023.33 1024.05 1024.67 1025.21 1025.75 1026.29 1026.85 1027.29 1027.83 1028.21 1028.69 1029.23 1029.49 1029.85 1029.93 1030.25 1030.83 1031.37 1031.65 1031.77 1031.85 1031.93 1032.03 1032.05 1032.03 1031.93 1031.77 1031.47 1031.39 1031.15 1031.07 1031.09 1031.05 1030.87 1030.53 1030.27 1029.97 1029.75 1029.43 1029.13 1028.79 1028.53 1028.23 1028.09 1027.93 1027.71 1027.41
1019.33 1019.41 1020.07 1020.85 1021.79 1022.11 1022.27 1022.07 1021.79 1022.17 1022.55 1021.67 1021.73 1022.47 1023.15 1023.79 1024.31 1024.83 1025.37 1025.81 1026.29 1026.93 1027.51 1027.93 1028.45 1028.83 1029.21 1029.49 1029.87 1030.15 1030.25 1030.53 1030.99 1031.39 1031.29 1031.43 1031.33 1030.95 1030.99 1030.65 1030.89 1031.07 1031.11 1031.07 1030.67 1030.69 1030.65 1030.55 1030.39 1030.11 1029.85 1029.65 1029.37 1029.05 1028.77 1028.45 1028.21 1027.95 1027.77 1027.53 1027.23 1026.93
1018.73 1019.03 1019.77 1020.63 1021.49 1022.09 1022.23 1021.99 1021.43 1021.79 1021.83 1021.29 1021.89 1022.51 1023.19 1023.87 1024.61 1025.13 1025.43 1025.79 1026.29 1026.79 1027.33 1028.03 1028.39 1028.77 1029.07 1029.45 1029.65 1029.79 1030.03 1030.47 1030.89 1030.77 1030.77 1031.15 1030.85 1030.55 1030.37 1030.13 1030.37 1030.67 1030.61 1030.69 1030.67 1030.41 1030.29 1030.07 1029.95 1029.69 1029.41 1029.21 1028.97 1028.73 1028.45 1028.17 1027.91 1027.63 1027.35 1027.11 1026.83 1026.69
1019.85 1019.95 1019.89 1020.39 1021.33 1021.95 1022.11 1022.15 1021.71 1021.35 1020.71 1020.99 1021.81 1022.49 1023.21 1024.09 1024.69 1025.09 1025.19 1025.69 1026.25 1026.65 1027.35 1027.81 1028.41 1028.85 1029.13 1029.39 1029.47 1029.45 1029.33 1029.55 1030.19 1029.91 1029.75 1030.19 1030.09 1030.23 1030.29 1030.05 1030.19 1030.39 1030.49 1030.49 1030.27 1030.17 1029.95 1029.87 1029.77 1029.53 1029.19 1028.93 1028.67 1028.41 1028.13 1027.83 1027.51 1027.25 1026.97 1026.77 1026.67 1026.69
1020.15 1020.01 1019.97 1019.83 1020.63 1021.55 1021.89 1022.05 1021.85 1021.05 1020.71 1021.31 1022.07 1022.81 1023.43 1024.01 1024.27 1024.49 1024.93 1025.31 1026.03 1026.75 1027.31 1027.41 1027.67 1028.41 1029.11 1029.49 1029.35 1029.37 1029.33 1029.35 1029.43 1029.55 1029.53 1029.55 1029.57 1029.77 1029.87 1029.95 1030.07 1029.97 1029.87 1029.91 1029.79 1029.71 1029.57 1029.47 1029.39 1029.11 1028.83 1028.53 1028.27 1028.01 1027.75 1027.51 1027.23 1026.83 1026.61 1026.59 1026.69 1026.75
1019.65 1019.41 1019.63 1019.59 1019.65 1020.65 1021.31 1021.71 1021.71 1021.41 1021.39 1021.79 1022.47 1023.19 1023.71 1023.93 1023.95 1023.75 1023.95 1024.55 1025.39 1026.09 1026.83 1026.95 1027.05 1027.65 1028.13 1028.77 1028.93 1028.95 1029.13 1029.25 1029.31 1029.19 1029.01 1028.87 1028.87 1029.11 1029.17 1029.41 1029.47 1029.39 1029.23 1029.19 1029.09 1029.09 1029.07 1029.03 1028.83 1028.63 1028.37 1028.11 1027.93 1027.63 1027.33 1027.07 1026.77 1026.51 1026.45 1026.65 1026.65 1026.81
1019.19 1019.13 1019.25 1018.99 1019.05 1019.87 1020.81 1021.15 1021.19 1021.41 1021.61 1021.97 1022.59 1023.17 1023.33 1023.33 1023.55 1023.67 1023.89 1024.63 1025.37 1025.63 1026.33 1026.59 1026.77 1027.21 1027.29 1027.95 1028.61 1028.39 1028.21 1028.37 1028.73 1028.81 1028.69 1028.73 1028.77 1028.65 1028.65 1028.71 1028.67 1028.79 1028.91 1028.93 1028.85 1028.87 1028.73 1028.43 1028.21 1027.93 1027.75 1027.61 1027.35 1027.17 1027.07 1026.81 1026.45 1026.25 1026.29 1026.47 1026.47 1026.99
1018.71 1018.81 1018.91 1018.75 1018.95 1019.41 1019.91 1020.39 1020.79 1021.21 1021.57 1022.13 1022.69 1023.07 1022.97 1022.97 1023.37 1023.65 1023.75 1024.39 1025.03 1025.35 1026.09 1026.39 1026.65 1027.01 1027.17 1027.43 1027.83 1028.37 1028.59 1028.61 1028.45 1028.41 1028.43 1028.41 1028.51 1028.51 1028.37 1028.35 1028.31 1028.21 1028.31 1028.41 1028.29 1028.25 1028.15 1027.85 1027.57 1027.37 1027.13 1026.99 1027.03 1026.97 1026.69 1026.33 1026.03 1025.95 1026.11 1026.29 1026.53 1026.97
1018.89 1018.95 1018.89 1018.71 1018.87 1019.13 1019.41 1019.79 1020.23 1020.89 1021.45 1021.91 1022.41 1022.73 1022.61 1022.77 1023.01 1023.31 1023.53 1024.39 1024.73 1024.89 1025.39 1025.89 1026.19 1026.73 1026.93 1027.21 1027.51 1027.73 1027.87 1027.95 1028.05 1027.93 1027.85 1027.85 1027.89 1027.81 1027.69 1027.57 1027.45 1027.41 1027.35 1027.55 1027.63 1027.33 1026.97 1026.77 1026.71 1026.59 1026.63 1026.79 1026.79 1026.61 1026.31 1025.99 1025.87 1025.93 1026.19 1026.37 1026.73 1026.97
1018.99 1018.91 1018.39 1018.35 1018.71 1018.91 1019.19 1019.51 1019.89 1020.43 1021.11 1021.73 1022.23 1022.59 1022.61 1022.63 1022.57 1022.47 1022.73 1023.47 1024.21 1025.09 1025.71 1025.79 1026.01 1026.41 1026.81 1027.01 1027.39 1027.53 1027.57 1027.43 1027.21 1027.17 1027.21 1027.25 1027.21 1027.15 1027.05 1026.91 1026.83 1026.73 1026.65 1026.45 1026.37 1026.33 1026.37 1026.27 1026.21 1026.39 1026.49 1026.49 1026.39 1026.25 1025.93 1025.77 1025.85 1026.11 1026.29 1026.49 1026.89 1027.11
1018.01 1018.11 1018.21 1018.41 1018.63 1018.83 1019.07 1019.29 1019.57 1020.37 1021.07 1021.67 1022.13 1022.49 1022.53 1022.49 1022.47 1022.19 1022.39 1023.27 1024.33 1025.11 1025.73 1025.95 1026.09 1026.35 1026.49 1026.83 1027.09 1027.37 1027.41 1027.31 1027.01 1026.37 1026.09 1026.73 1027.07 1027.05 1026.97 1026.91 1026.77 1026.61 1026.41 1026.31 1026.15 1026.03 1025.91 1025.89 1026.01 1026.11 1026.15 1026.15 1026.09 1025.83 1025.63 1025.69 1026.03 1026.21 1026.39 1026.73 1026.99 1027.15
1017.77 1017.93 1018.11 1018.37 1018.57 1018.79 1019.05 1019.23 1019.57 1020.35 1021.03 1021.69 1022.15 1022.45 1022.41 1022.47 1022.55 1022.45 1022.61 1023.23 1024.07 1024.65 1025.15 1025.59 1025.69 1025.93 1026.11 1026.23 1026.51 1026.73 1026.97 1026.93 1026.83 1026.79 1026.61 1026.55 1026.75 1027.07 1027.15 1026.99 1026.71 1026.53 1026.45 1026.35 1026.23 1026.15 1026.09 1026.09 1026.09 1026.03 1025.99 1025.89 1025.73 1025.43 1025.47 1025.83 1026.21 1026.37 1026.65 1026.95 1027.13 1027.17
1018.03 1018.09 1018.25 1018.45 1018.71 1019.01 1019.19 1019.37 1019.99 1020.81 1021.39 1021.85 1022.23 1022.49 1022.65 1022.71 1022.91 1023.05 1023.25 1023.67 1024.09 1024.41 1024.63 1024.95 1025.23 1025.61 1025.89 1026.19 1026.43 1026.69 1026.89 1026.89 1027.03 1027.19 1027.53 1027.53 1026.93 1026.39 1026.27 1026.47 1026.61 1026.67 1026.73 1026.67 1026.55 1026.39 1026.27 1026.15 1025.99 1025.89 1025.79 1025.69 1025.39 1025.33 1025.57 1025.83 1026.13 1026.31 1026.55 1026.87 1027.13 1027.13
1018.01 1018.05 1018.39 1018.65 1018.85 1019.07 1019.33 1019.75 1020.95 1021.57 1021.83 1022.09 1022.35 1022.53 1022.69 1022.97 1023.23 1023.41 1023.67 1024.39 1024.77 1024.79 1024.71 1024.99 1025.21 1025.51 1025.87 1026.15 1026.37 1026.53 1026.73 1026.81 1026.95 1027.13 1027.27 1027.39 1027.57 1027.53 1027.41 1027.09 1026.79 1026.87 1026.91 1026.77 1026.53 1026.29 1026.11 1025.95 1025.81 1025.77 1025.69 1025.49 1025.27 1025.47 1025.63 1026.03 1025.99 1026.23 1026.41 1026.69 1026.71 1026.77
Wind_Speed
10 9 9 7 7 7 7 7 6 6 6 7 8 11 10 11 8 8 8 8 7 6 8 8 7 7 7 6 6 5 6 6 5 5 4 4 3 3 3 3 3 3 3 3 3 3 4 4 4 4 4 4 4 4 3 4 4 4 4 3 4 4
10 10 10 10 9 8 7 8 7 8 7 8 8 8 9 9 10 9 9 7 7 8 8 7 7 7 7 7 6 6 6 6 6 5 5 4 3 4 4 4 4 4 4 4 4 4 4 5 4 5 5 4 4 4 4 5 5 5 5 4 4 4
10 9 9 8 8 7 7 8 8 8 7 8 9 12 11 10 9 9 8 8 8 9 9 8 7 7 6 6 6 6 6 5 5 5 4 4 5 4 4 4 4 4 4 4 4 4 4 4 4 4 4 4 4 4 4 4 5 5 5 5 6 5
9 8 7 7 8 8 9 8 8 9 9 9 9 9 9 11 9 8 9 8 8 9 9 9 7 7 6 7 6 6 6 5 5 5 4 5 4 4 3 3 3 3 3 2 3 3 3 3 3 4 3 4 4 4 3 4 5 6 6 5 6 6
10 10 10 10 10 10 10 9 9 10 10 10 9 10 10 9 9 9 8 9 9 9 8 8 7 7 8 7 6 7 6 6 5 4 4 4 3 3 2 2 2 2 2 2 2 2 2 3 3 3 3 4 4 5 5 4 5 5 6 6 6 6
9 9 12 12 12 12 12 10 9 9 9 9 9 10 11 10 9 9 9 9 9 9 9 8 7 8 7 7 6 7 6 5 5 4 4 3 2 2 2 1 1 1 2 2 2 2 3 3 4 4 4 4 4 5 5 5 5 5 6 6 6 6
12 12 12 12 11 11 11 11 11 11 10 10 10 9 10 9 9 9 9 10 10 10 9 9 8 7 7 6 6 7 6 5 4 3 3 2 2 1 1 1 1 1 1 1 2 3 3 3 4 4 4 4 4 5 5 6 6 6 6 6 6 6
10 10 12 11 11 11 11 11 11 11 10 10 9 10 10 10 9 9 10 9 10 10 10 9 7 7 7 7 7 6 5 5 4 4 3 2 2 1 1 1 1 1 1 1 2 2 3 3 4 4 4 5 5 5 5 5 6 6 6 6 6 6
14 14 12 11 11 11 11 12 12 11 11 11 10 9 10 10 10 10 10 10 10 10 10 8 7 6 7 6 6 5 5 4 4 3 3 2 2 1 1 1 0 0 0 1 1 2 3 4 4 4 4 5 5 5 6 6 6 6 6 6 6 6
13 13 13 13 12 12 11 11 11 12 12 12 11 11 10 8 11 11 10 11 10 9 8 7 6 6 6 6 6 5 5 4 4 3 3 2 2 1 1 0 0 1 1 1 2 2 3 4 4 4 4 4 5 6 6 6 6 7 6 7 7 6
14 14 12 12 13 14 13 12 12 10 10 10 11 10 11 10 11 11 11 11 10 9 8 7 6 6 6 7 6 6 5 4 4 3 3 2 2 1 1 1 1 1 1 1 2 2 3 3 3 2 3 5 6 6 7 7 7 7 8 8 7 7
10 11 12 12 14 14 14 13 13 13 12 12 12 11 11 10 11 12 11 11 9 7 7 7 6 7 7 7 6 5 5 4 4 4 3 2 2 1 1 1 1 1 1 2 2 2 3 3 3 3 8 8 7 7 7 7 7 7 7 8 8 8
10 11 13 15 15 16 15 14 13 12 13 12 12 12 11 11 11 11 11 11 8 8 8 7 7 7 7 6 5 4 5 5 4 4 3 2 2 2 2 2 2 2 2 2 2 3 4 3 3 7 9 9 10 8 7 7 7 8 8 8 8 8
12 13 14 15 16 16 15 13 13 12 14 13 13 12 10 10 11 11 11 9 8 8 8 8 8 7 7 6 5 5 4 4 4 4 3 3 2 2 2 2 3 2 2 2 2 3 4 4 5 9 9 10 10 10 8 7 7 7 7 8 8 8
13 14 14 14 14 14 15 14 13 14 14 13 12 9 9 10 10 10 9 8 9 9 9 8 8 6 6 6 5 5 4 4 4 4 3 3 2 2 3 3 3 3 2 3 3 4 5 5 6 9 10 10 11 11 10 7 7 7 8 8 9 8
8 11 13 14 13 14 13 13 13 12 10 10 9 10 10 10 10 10 9 8 9 9 8 8 7 6 6 5 5 5 5 4 4 4 3 2 2 3 4 3 4 3 3 3 3 4 5 6 7 10 11 11 11 11 10 8 8 8 8 8 8 7
10 10 10 11 11 11 10 11 11 9 9 10 9 9 10 10 10 10 9 9 9 8 6 8 7 6 6 6 5 5 4 4 4 4 3 3 3 4 4 4 4 4 3 3 3 4 5 6 9 10 11 11 11 12 10 7 7 7 7 8 8 9
11 12 11 8 8 9 10 11 10 9 9 8 9 9 9 8 9 9 8 8 8 9 8 7 7 7 7 7 6 5 5 5 5 5 4 3 3 4 3 4 3 4 4 4 4 4 6 7 9 10 11 11 11 12 7 6 6 7 7 8 8 9
6 6 6 7 9 9 10 9 9 9 8 8 7 8 7 7 8 9 10 8 9 9 9 9 8 8 7 7 6 6 6 6 5 4 4 4 5 5 5 4 4 4 4 4 5 5 6 7 8 10 11 11 11 8 5 6 6 6 7 8 9 9
4 5 7 8 8 8 8 8 9 9 8 8 8 8 8 8 10 10 9 10 8 9 9 9 8 8 8 7 7 7 6 5 4 5 5 5 5 5 5 4 4 4 4 5 6 5 5 7 9 11 11 11 10 8 6 6 6 7 7 8 8 8
6 7 7 8 8 8 8 8 9 8 8 8 8 9 8 10 11 10 11 11 9 9 7 6 7 8 8 7 7 6 7 6 5 4 5 4 4 4 3 4 4 4 4 5 6 7 8 7 9 10 10 10 10 8 6 6 6 7 7 7 8 9
8 6 7 8 9 8 9 9 9 9 9 8 7 8 9 11 12 11 9 7 7 7 6 6 11 10 13 8 6 5 5 4 4 5 5 5 4 4 3 4 4 4 4 4 5 5 6 6 7 7 11 11 11 10 6 6 6 7 8 8 9 10
7 8 10 7 7 8 8 8 7 8 8 8 8 10 12 11 8 7 8 7 7 7 7 6 11 13 8 5 7 6 5 5 5 5 5 5 4 3 3 4 3 4 4 4 5 5 6 5 6 8 10 11 11 11 9 6 7 7 8 9 9 8
5 3 3 4 7 8 8 7 11 7 8 7 9 12 10 7 7 7 7 7 7 8 10 11 7 7 7 5 6 6 5 4 4 4 4 4 4 4 4 3 3 3 3 3 4 5 5 6 9 7 10 11 11 11 11 8 7 8 8 9 9 10
7 8 8 6 7 7 7 11 12 9 9 10 17 10 7 6 7 8 6 8 10 11 13 11 12 8 6 6 5 6 6 5 4 4 3 3 3 4 3 4 3 3 3 2 3 3 4 5 6 9 8 10 11 11 11 12 10 12 9 9 10 10
7 7 6 6 6 6 7 11 11 10 10 15 10 6 5 6 5 7 10 12 13 12 10 10 8 6 6 7 6 6 5 5 5 4 4 4 4 3 3 3 3 2 2 3 2 3 3 4 5 7 10 9 11 11 12 12 13 13 9 9 9 10
10 9 7 6 8 6 7 8 11 11 13 13 6 10 11 11 11 11 12 14 14 13 8 7 7 7 6 6 7 7 6 5 5 4 4 4 4 4 3 3 2 2 2 2 3 3 3 3 4 5 7 10 11 11 11 12 13 13 14 10 9 9
4 3 6 7 7 7 7 7 9 12 15 8 8 10 13 12 12 12 13 12 10 9 9 9 6 6 6 6 6 6 5 6 6 5 4 4 4 3 3 3 2 2 3 3 2 3 3 4 4 5 6 7 8 8 10 13 13 13 13 12 10 14
7 9 10 10 8 8 7 11 9 12 4 5 7 11 12 12 13 13 11 13 8 8 7 9 7 7 6 6 5 5 4 4 4 5 4 4 4 3 3 3 3 3 3 3 3 3 3 4 5 5 6 5 5 6 8 8 7 11 10 8 7 10
10 12 11 12 11 10 10 11 12 13 7 5 8 10 10 11 13 13 15 16 10 8 9 8 9 9 6 7 6 6 5 5 5 5 6 5 5 4 4 4 4 4 3 3 2 3 4 5 5 5 5 5 6 7 6 6 7 6 4 2 6 3
12 12 12 13 9 9 11 12 12 10 9 8 9 10 13 12 12 11 11 9 6 7 6 6 6 6 6 5 5 5 5 6 6 6 4 4 3 4 4 4 5 4 4 4 4 4 5 5 5 5 6 8 10 9 8 7 7 6 4 5 9 2
11 12 12 12 8 8 10 12 11 9 8 7 9 10 12 12 9 10 9 7 6 6 6 6 6 5 4 5 5 5 4 6 9 7 5 4 9 14 14 11 7 6 5 6 6 6 6 7 7 10 14 14 13 14 15 14 13 12 8 10 9 3
10 10 11 11 7 9 10 10 9 9 9 10 11 10 11 9 9 6 5 6 7 8 7 6 6 6 5 4 4 4 4 3 6 14 16 13 11 12 15 17 18 17 16 10 7 9 18 17 16 16 14 13 14 14 14 13 11 10 8 10 5 3
8 11 14 12 8 9 8 9 8 9 9 10 10 10 10 10 8 8 8 7 4 6 5 4 5 5 5 4 4 4 4 4 3 4 12 17 16 16 16 17 17 17 16 17 14 11 7 11 13 12 12 13 13 13 13 11 8 6 7 8 4 3
11 10 10 7 7 8 8 9 8 5 7 9 9 10 11 11 10 8 5 4 5 6 6 5 5 5 5 6 6 5 5 4 4 4 2 5 11 12 12 12 14 15 15 15 15 15 13 10 9 11 12 12 12 13 11 7 4 6 6 4 2 2
6 6 6 6 7 7 6 8 6 6 7 8 8 10 11 10 9 7 5 5 7 6 6 6 5 5 5 5 5 5 5 5 4 2 2 2 2 5 8 11 11 8 5 7 8 9 9 10 11 12 12 11 12 12 8 1 3 4 1 1 2 2
6 6 6 6 5 5 6 7 2 4 6 8 8 9 8 7 8 3 4 8 8 5 5 5 5 5 4 4 5 5 4 4 3 3 4 4 4 3 3 3 4 6 6 5 5 7 10 11 12 12 11 11 12 6 2 3 1 1 1 1 2 3
6 6 4 4 5 5 5 3 2 4 6 7 8 8 8 7 6 4 4 4 5 4 3 4 4 4 4 4 4 3 4 3 4 3 4 3 4 4 4 4 4 2 4 8 10 12 12 12 11 10 9 11 7 4 3 1 2 2 2 2 2 3
Wind_Direction
190 187 184 178 177 175 169 162 160 158 149 146 142 138 137 134 130 128 129 131 129 129 127 127 125 125 125 125 124 125 126 123 119 115 115 116 104 88 79 71 59 48 44 42 34 30 25 20 16 6 4 359 3 359 358 5 353 343 336 337 335 321
188 184 181 177 177 177 171 164 163 164 156 149 141 133 133 132 133 136 135 133 130 128 128 130 131 132 135 138 141 136 131 126 122 114 102 92 84 70 62 57 46 38 32 28 25 18 18 11 7 4 358 352 2 351 352 349 341 334 326 327 325 314
183 179 175 175 177 176 170 170 172 167 164 160 154 148 146 143 144 141 138 137 136 137 141 143 145 148 147 145 143 131 123 113 102 92 89 82 63 57 55 51 42 33 29 23 20 16 5 3 356 355 347 345 345 339 335 327 328 324 320 318 314 310
175 167 166 172 177 178 178 178 174 170 175 169 161 154 153 151 152 149 146 145 145 146 148 152 155 156 151 147 141 124 114 101 91 91 89 84 74 62 56 50 43 31 22 19 14 5 357 346 344 340 338 336 329 325 323 318 319 315 311 309 306 311
173 172 174 179 184 183 183 182 180 179 178 172 170 163 161 159 156 152 153 151 151 154 157 161 164 162 156 143 130 116 108 103 97 88 87 78 79 74 63 47 42 26 20 9 6 355 344 337 332 334 327 323 320 313 312 308 306 304 303 303 302 307
166 171 181 185 188 185 184 182 185 186 182 178 171 169 162 162 160 160 159 157 158 161 166 170 165 161 151 133 122 119 110 105 97 88 89 96 95 101 86 71 32 22 13 0 354 346 334 326 326 320 316 310 308 305 303 303 300 297 296 295 300 305
184 189 187 187 185 181 182 185 189 187 185 180 176 172 169 165 167 166 166 164 163 169 173 170 167 158 146 134 125 114 109 107 109 106 113 120 124 112 99 76 60 12 4 357 344 332 325 321 316 312 307 306 300 299 298 297 298 295 294 296 298 301
188 188 190 186 182 181 183 186 189 190 187 185 178 173 171 174 172 174 169 170 170 175 177 172 166 158 146 130 119 118 119 122 123 128 126 119 129 114 113 73 22 26 352 336 328 317 309 307 307 301 301 301 301 297 295 292 292 293 295 297 298 299
198 198 188 184 180 182 186 187 188 189 188 186 185 183 179 177 176 178 176 175 177 178 178 173 168 155 141 130 127 130 135 133 131 131 126 122 122 124 132 83 71 327 327 307 311 302 302 301 297 296 300 301 299 297 294 295 296 298 300 297 299 298
197 191 188 182 183 185 188 189 190 189 189 187 186 187 182 178 180 181 181 180 182 182 174 169 160 147 135 130 132 139 141 139 136 130 130 131 146 131 134 207 207 233 249 287 294 293 296 294 293 297 300 301 302 301 302 303 302 303 303 299 299 299
195 187 180 183 183 189 190 190 192 193 194 191 188 187 189 181 180 183 184 184 185 180 167 158 151 135 130 138 145 149 149 142 136 137 135 136 137 123 169 229 216 227 243 252 268 279 286 282 284 296 314 314 310 308 304 302 302 304 303 301 298 294
185 181 180 184 190 192 192 192 193 194 192 193 191 191 189 177 185 185 186 186 184 166 162 158 147 146 148 155 157 154 151 148 144 144 141 147 146 155 192 217 228 227 247 254 260 269 268 270 267 282 290 296 300 304 300 298 296 296 296 298 298 296
186 184 190 194 194 195 194 195 194 192 194 195 193 191 186 180 185 187 185 187 177 162 163 159 157 153 162 160 152 151 154 150 148 144 144 156 158 179 196 225 216 223 235 236 257 266 268 263 259 279 295 299 299 299 295 293 294 292 291 291 295 294
193 193 196 197 197 196 195 193 190 187 196 194 193 189 176 178 184 186 187 184 162 168 167 167 160 164 161 153 157 158 154 146 149 149 154 160 166 200 205 231 218 230 228 234 248 259 265 272 269 288 297 299 298 296 294 291 288 287 285 286 289 291
199 199 200 198 197 197 199 191 187 195 195 190 190 168 165 180 184 186 182 171 171 176 175 165 164 163 157 163 156 156 153 153 152 150 153 169 167 204 225 217 211 224 222 238 246 263 269 270 279 290 296 296 295 294 293 286 282 283 281 283 289 290
200 203 203 200 199 200 197 192 195 196 185 180 172 169 176 180 186 187 184 172 179 177 172 164 160 164 163 154 157 162 162 157 163 152 155 153 185 216 225 217 216 220 227 235 253 260 269 274 278 286 290 293 292 291 290 283 282 279 279 281 285 285
200 203 202 204 200 194 189 195 196 185 175 176 171 175 175 183 184 189 186 179 181 171 166 165 170 167 158 161 163 166 164 162 153 154 170 177 203 211 215 212 209 213 224 237 245 257 269 267 272 280 288 290 289 289 292 284 280 276 273 276 276 283
193 192 198 189 179 188 191 194 183 175 178 166 175 174 181 181 186 190 179 177 178 176 174 169 172 164 163 167 169 168 169 170 169 170 173 182 210 217 216 223 209 212 219 234 240 250 261 264 268 278 284 287 288 295 294 280 275 272 273 277 278 281
182 183 159 168 181 182 187 178 166 169 157 164 177 169 179 180 190 193 187 187 180 178 177 179 171 167 165 168 168 176 176 171 173 173 171 190 212 210 210 204 209 212 217 227 233 242 255 267 270 274 282 288 292 297 284 278 275 274 277 277 280 281
157 161 170 174 179 180 171 164 163 164 159 170 167 172 180 184 199 193 183 191 182 181 178 179 171 163 167 169 180 174 179 171 172 174 181 198 205 212 204 206 209 216 220 223 232 237 252 265 270 276 286 291 290 289 285 279 277 275 279 279 279 280
165 161 162 167 174 176 162 155 156 157 171 170 170 176 179 195 200 188 188 194 179 178 174 167 166 169 168 174 179 168 169 173 177 175 178 204 214 216 204 208 216 213 224 222 232 245 253 263 271 278 289 291 289 287 278 277 278 277 279 282 283 282
135 151 167 180 183 157 154 153 162 174 175 173 163 178 195 203 199 192 186 168 158 166 165 170 167 173 174 170 159 164 170 159 164 180 190 200 208 208 206 207 217 215 233 231 235 241 247 260 270 278 290 290 287 283 280 276 276 277 281 280 280 279
173 175 183 186 158 153 160 158 157 175 183 165 175 200 209 202 181 166 166 160 158 164 167 171 179 168 173 163 159 159 163 177 182 177 189 197 208 203 214 212 230 227 235 234 238 250 254 249 264 274 285 288 286 282 278 273 269 275 280 283 277 274
188 177 169 163 154 160 161 163 170 184 170 171 201 214 202 166 162 158 155 160 170 166 161 163 162 165 155 145 153 164 175 183 176 179 184 204 202 201 220 222 231 232 238 237 232 241 252 258 261 268 278 284 284 280 275 270 271 273 281 286 289 293
192 199 193 168 160 169 167 170 181 187 183 191 216 204 165 160 156 160 164 161 159 170 168 164 162 159 154 157 168 160 173 166 171 184 185 200 208 213 224 229 225 231 241 241 247 242 250 260 267 270 277 281 282 280 278 278 280 285 288 289 288 288
196 199 184 161 166 173 173 177 187 188 187 214 214 148 138 148 157 151 158 165 167 157 169 169 161 155 163 163 163 173 173 177 171 179 198 194 209 220 219 229 206 224 236 249 256 251 255 258 259 271 280 283 282 284 286 286 287 289 286 287 288 292
200 202 186 181 177 187 185 194 189 189 202 220 163 169 163 160 151 167 175 174 172 175 166 156 170 166 167 167 166 172 182 177 170 193 196 190 212 216 227 238 217 240 255 261 259 272 270 260 268 285 287 286 289 289 289 291 292 291 292 293 291 298
253 232 223 206 182 192 196 202 201 194 218 185 169 168 148 158 166 177 187 184 180 176 158 164 168 171 170 171 183 188 187 174 179 200 190 191 205 200 212 233 213 229 239 241 250 257 262 267 281 278 282 287 284 285 292 299 296 293 292 297 305 308
210 222 223 226 192 190 201 206 215 222 213 161 163 154 165 171 177 184 178 178 177 168 169 175 177 173 171 182 183 190 192 191 190 196 204 203 201 200 209 217 213 228 230 236 239 251 257 276 270 282 286 277 281 286 285 279 282 294 297 299 305 306
211 221 219 229 214 183 203 206 219 222 210 159 153 166 170 180 186 186 185 179 172 176 179 189 180 172 173 182 181 182 189 193 195 199 203 195 194 192 210 203 215 219 221 230 233 243 273 266 270 276 273 278 278 272 279 293 297 299 304 319 314 330
213 221 221 230 224 198 206 216 222 218 200 174 157 167 178 190 197 200 196 182 171 184 174 182 165 187 176 168 181 208 198 187 190 203 218 218 202 207 205 210 223 219 214 215 223 245 268 266 270 265 264 272 283 296 296 293 294 308 314 327 329 52
215 220 224 234 220 202 210 217 220 209 184 170 169 176 188 195 184 190 192 176 184 179 167 183 179 177 180 175 185 189 234 241 225 216 208 220 214 223 227 220 219 210 206 217 218 210 239 256 263 258 272 286 293 290 288 289 295 303 313 321 337 26
221 227 236 238 222 217 217 220 214 201 191 182 167 185 197 188 187 197 190 168 197 186 172 170 168 172 178 179 180 186 199 214 226 229 229 228 225 225 228 231 236 236 228 212 226 226 235 240 249 266 282 286 285 286 288 292 299 306 323 328 347 327
224 224 232 235 225 224 221 225 219 203 189 182 183 185 194 196 193 197 195 184 177 157 175 178 171 157 171 178 180 189 191 211 230 229 222 228 235 236 240 243 246 249 252 254 255 262 273 266 263 261 268 274 279 282 285 290 306 352 338 325 353 305
223 227 233 236 226 225 225 227 226 183 176 177 179 181 198 203 205 210 176 157 158 173 179 181 176 184 181 177 179 185 191 200 207 229 221 196 217 236 247 252 251 255 256 253 253 254 256 260 268 270 271 274 277 279 281 291 0 356 336 332 298 275
237 237 237 236 231 229 229 234 224 178 179 172 177 188 201 203 207 209 189 169 163 164 175 184 187 184 189 187 183 186 185 202 204 212 225 247 234 210 231 244 253 254 255 253 253 255 260 266 271 272 271 272 273 278 276 12 17 332 60 344 257 269
241 246 239 236 234 229 231 239 220 152 148 155 170 178 194 188 177 172 160 166 170 179 177 176 179 177 178 177 184 184 188 197 192 192 197 212 229 251 245 210 224 244 261 265 280 280 269 267 265 263 266 269 273 277 71 357 323 285 228 220 221 244
226 239 229 221 224 221 230 220 81 127 130 147 163 169 157 159 161 161 154 155 176 180 173 169 170 174 177 179 185 175 184 179 182 191 207 209 218 229 253 276 259 249 263 272 273 268 267 263 257 256 261 267 269 98 75 293 277 258 240 239 243 242